ONEWEB-0232 (48781 NORAD) Tracking and Keplerian Element Data

This shows tracking and keplerian element data for the satellite.

Feedback or suggestion? Click here.




ElementValue
Catalog48781
NameONEWEB-0232
Epoch Orbit358
Epoch Day214.91667824
Epoch Year2021
RAAN254.5189
Inclination87.7907
Eccentricity0.0011354
Argument of Perigee48.3154
Mean Anonmoly322.9123
Mean Motion14.78773932
Decay Rate-0.01040353
L11 48781U 21045Q 21214.91667824 -.01040353 00000-0 -15146+0 0 9997
L22 48781 87.7907 254.5189 0011354 48.3154 322.9123 14.78773932 3580

Live tracking and technical data element details for ONEWEB-0232 (NORAD 48781). ONEWEB-0232 can be tracked NOW for your location showing map with azimuth and elevation plus other details from your city location.

Track the satellite on the map from your city or location and see movement details for azimuth, elevation, latitude, longitude, range, height, and movement on the map or in text.







IsCatalogInMostPopularTable: catalog: 48781, numindb: 18
Update: records affected: 1



GetName: 48781 ONEWEB-0232

Hit Count: updated at: Tue, 03 Aug 2021 21:02:06 GMT